Weather History for Breckenridge, TX

Change the Weather History Date:

Saturday, December 29, 2012

  Actual Average (KABI) Record (KABI)
Temperature  
Mean Temperature 37 °F 44 °F  
Max Temperature 51 °F 56 °F 78 °F (1951)
Min Temperature 23 °F 33 °F 5 °F (1983)
Degree Days  
Heating Degree Days 28 21  
Month to date heating degree days 570  
Since 1 July heating degree days 1003  
Cooling Degree Days 0 0  
Month to date cooling degree days 0  
Year to date cooling degree days 2408  
Moisture  
Dew Point 19 °F    
Average Humidity 58    
Maximum Humidity 80    
Minimum Humidity 26    
Precipitation  
Precipitation 0.00 in 0.04 in 1.42 in (1933)
Month to date precipitation 1.16  
Year to date precipitation 24.75  
Sea Level Pressure  
Sea Level Pressure 30.35 in    
Wind  
Wind Speed 4 mph (SSW)    
Max Wind Speed 12 mph    
Max Gust Speed -    
Visibility 10 miles    
Events      
T = Trace of Precipitation, MM = Missing Value Source: NWS Daily Summary

Daily Weather History Graph

Daily Weather History Graph

Search for Another Location

Airport:

Trip Planner

Search our weather history database for the weather conditions in past years. The results will help you decide how hot, cold, wet, or windy it might be!

Date:

Astronomy

Dec. 29, 2012 Rise Set
Actual Time 7:37 AM CST 5:38 PM CST
Civil Twilight 7:10 AM CST 6:05 PM CST
Nautical Twilight 6:39 AM CST 6:36 PM CST
Astronomical Twilight 6:09 AM CST 7:06 PM CST
Moon 7:07 PM CST (12/29) 8:16 AM CST (12/29)
Length of Visible Light 10h 55m
Length of Day
10h 01m
Full, 98% of the Moon is Illuminated
Dec 29
Full
Jan 4
Last Quarter
Jan 11
New
Jan 18
First Quarter
Jan 26
Full

Hourly Weather History & Observations

Time (CST) Temp. Windchill Dew Point Humidity Pressure Visibility Wind Dir Wind Speed Gust Speed Precip Events Conditions
12:15 AM 26.6 °F 22.6 °F 19.4 °F 74% 30.23 in 10.0 mi West 3.5 mph - N/A   Clear
12:35 AM 24.8 °F 20.5 °F 19.4 °F 80% 30.24 in 10.0 mi WSW 3.5 mph - N/A   Clear
12:55 AM 26.6 °F 22.6 °F 19.4 °F 74% 30.24 in 10.0 mi SW 3.5 mph - N/A   Clear
1:15 AM 26.6 °F 19.1 °F 19.4 °F 74% 30.25 in 10.0 mi SSW 6.9 mph - N/A   Clear
1:35 AM 24.8 °F 16.9 °F 19.4 °F 80% 30.25 in 10.0 mi SW 6.9 mph - N/A   Clear
1:55 AM 24.8 °F 16.9 °F 19.4 °F 80% 30.26 in 10.0 mi SW 6.9 mph - N/A   Clear
2:15 AM 24.8 °F - 19.4 °F 80% 30.25 in 10.0 mi Calm Calm - N/A   Clear
2:35 AM 24.8 °F 19.1 °F 19.4 °F 80% 30.26 in 10.0 mi SW 4.6 mph - N/A   Clear
2:55 AM 23.0 °F 17.0 °F 17.6 °F 80% 30.27 in 10.0 mi WSW 4.6 mph - N/A   Clear
3:15 AM 24.8 °F 16.9 °F 17.6 °F 74% 30.28 in 10.0 mi SW 6.9 mph - N/A   Clear
3:35 AM 23.0 °F 15.8 °F 17.6 °F 80% 30.28 in 10.0 mi SW 5.8 mph - N/A   Clear
3:55 AM 24.8 °F 19.1 °F 17.6 °F 74% 30.29 in 10.0 mi SW 4.6 mph - N/A   Clear
4:15 AM 24.8 °F 19.1 °F 17.6 °F 74% 30.30 in 10.0 mi SW 4.6 mph - N/A   Clear
4:35 AM 24.8 °F 19.1 °F 17.6 °F 74% 30.30 in 10.0 mi SW 4.6 mph - N/A   Clear
4:55 AM 23.0 °F 18.4 °F 17.6 °F 80% 30.31 in 10.0 mi SW 3.5 mph - N/A   Clear
5:15 AM 23.0 °F 15.8 °F 17.6 °F 80% 30.32 in 10.0 mi SW 5.8 mph - N/A   Clear
5:35 AM 23.0 °F 17.0 °F 17.6 °F 80% 30.33 in 10.0 mi SW 4.6 mph - N/A   Clear
5:55 AM 23.0 °F 17.0 °F 17.6 °F 80% 30.33 in 10.0 mi SW 4.6 mph - N/A   Clear
6:15 AM 23.0 °F 15.8 °F 17.6 °F 80% 30.34 in 10.0 mi SW 5.8 mph - N/A   Clear
6:35 AM 23.0 °F 15.8 °F 17.6 °F 80% 30.34 in 10.0 mi SW 5.8 mph - N/A   Clear
6:55 AM 23.0 °F 14.7 °F 17.6 °F 80% 30.36 in 10.0 mi SSW 6.9 mph - N/A   Clear
7:15 AM 24.8 °F 19.1 °F 17.6 °F 74% 30.36 in 10.0 mi SSW 4.6 mph - N/A   Clear
7:35 AM 24.8 °F - 17.6 °F 74% 30.37 in 10.0 mi Calm Calm - N/A   Clear
7:55 AM 23.0 °F 17.0 °F 17.6 °F 80% 30.38 in 10.0 mi SW 4.6 mph - N/A   Clear
8:15 AM 24.8 °F 19.1 °F 17.6 °F 74% 30.39 in 10.0 mi SW 4.6 mph - N/A   Clear
8:35 AM 26.6 °F - 19.4 °F 74% 30.39 in 10.0 mi Calm Calm - N/A   Clear
8:55 AM 28.4 °F - 19.4 °F 69% 30.40 in 10.0 mi Calm Calm - N/A   Clear
9:15 AM 30.2 °F - 21.2 °F 69% 30.42 in 10.0 mi Calm Calm - N/A   Clear
9:35 AM 32.0 °F - 23.0 °F 69% 30.43 in 10.0 mi Calm Calm - N/A   Clear
9:55 AM 33.8 °F 29.6 °F 23.0 °F 65% 30.43 in 10.0 mi NNW 4.6 mph - N/A   Clear
10:15 AM 35.6 °F - 23.0 °F 60% 30.44 in 10.0 mi Calm Calm - N/A   Clear
10:35 AM 35.6 °F - 23.0 °F 60% 30.44 in 10.0 mi Calm Calm - N/A   Clear
10:55 AM 37.4 °F - 23.0 °F 56% 30.44 in 10.0 mi Calm Calm - N/A   Clear
12:15 PM 42.8 °F 41.1 °F 21.2 °F 42% 30.41 in 10.0 mi North 3.5 mph - N/A   Clear
12:35 PM 44.6 °F - 21.2 °F 39% 30.40 in 10.0 mi North - - N/A   Clear
12:55 PM 44.6 °F 43.1 °F 21.2 °F 39% 30.39 in 10.0 mi North 3.5 mph - N/A   Clear
1:15 PM 46.4 °F 44.3 °F 21.2 °F 37% 30.38 in 10.0 mi North 4.6 mph - N/A   Clear
1:35 PM 46.4 °F 44.3 °F 21.2 °F 37% 30.37 in 10.0 mi NNE 4.6 mph - N/A   Clear
1:55 PM 46.4 °F 44.3 °F 21.2 °F 37% 30.37 in 10.0 mi North 4.6 mph - N/A   Clear
2:15 PM 50.0 °F - 19.4 °F 30% 30.37 in 10.0 mi Calm Calm - N/A   Clear
2:55 PM 50.0 °F - 19.4 °F 30% 30.37 in 10.0 mi Calm Calm - N/A   Clear
3:15 PM 51.8 °F - 17.6 °F 26% 30.36 in 10.0 mi NW 5.8 mph - N/A   Clear
3:35 PM 51.8 °F - 17.6 °F 26% 30.37 in 10.0 mi NNW 4.6 mph - N/A   Clear
3:55 PM 50.0 °F - 17.6 °F 28% 30.37 in 10.0 mi Calm Calm - N/A   Clear
4:15 PM 50.0 °F - 17.6 °F 28% 30.37 in 10.0 mi North - - N/A   Clear
4:35 PM 50.0 °F - 15.8 °F 26% 30.37 in 10.0 mi Calm Calm - N/A   Clear
5:35 PM 46.4 °F - 17.6 °F 32% 30.37 in 10.0 mi Calm Calm - N/A   Clear
5:55 PM 46.4 °F 45.2 °F 15.8 °F 29% 30.37 in 10.0 mi SSW 3.5 mph - N/A   Clear
6:15 PM 46.4 °F 44.3 °F 15.8 °F 29% 30.36 in 10.0 mi South 4.6 mph - N/A   Clear
6:35 PM 44.6 °F 42.2 °F 15.8 °F 31% 30.37 in 10.0 mi South 4.6 mph - N/A   Clear
6:55 PM 44.6 °F 41.4 °F 15.8 °F 31% 30.37 in 10.0 mi SSW 5.8 mph - N/A   Clear
7:15 PM 39.2 °F 35.0 °F 17.6 °F 42% 30.38 in 10.0 mi SSW 5.8 mph - N/A   Clear
7:35 PM 35.6 °F 29.9 °F 17.6 °F 48% 30.38 in 10.0 mi South 6.9 mph - N/A   Clear
7:55 PM 35.6 °F 28.0 °F 19.4 °F 52% 30.39 in 10.0 mi SSE 10.4 mph - N/A   Clear
8:35 PM 33.8 °F 26.4 °F 19.4 °F 56% 30.37 in 10.0 mi SE 9.2 mph - N/A   Clear
8:55 PM 33.8 °F 25.8 °F 17.6 °F 52% 30.38 in 10.0 mi SSE 10.4 mph - N/A   Clear
9:15 PM 33.8 °F 25.8 °F 17.6 °F 52% 30.38 in 10.0 mi SSE 10.4 mph - N/A   Clear
9:35 PM 33.8 °F 26.4 °F 17.6 °F 52% 30.39 in 10.0 mi SSE 9.2 mph - N/A   Clear
9:55 PM 32.0 °F 26.4 °F 17.6 °F 55% 30.39 in 10.0 mi SE 5.8 mph - N/A   Clear
10:15 PM 32.0 °F 24.2 °F 17.6 °F 55% 30.38 in 10.0 mi SSE 9.2 mph - N/A   Clear
10:35 PM 32.0 °F 23.0 °F 17.6 °F 55% 30.38 in 10.0 mi SSE 11.5 mph - N/A   Clear
10:55 PM 33.8 °F 25.3 °F 17.6 °F 52% 30.39 in 10.0 mi SSE 11.5 mph - N/A   Clear
11:15 PM 33.8 °F 25.8 °F 17.6 °F 52% 30.39 in 10.0 mi SSE 10.4 mph - N/A   Clear
11:35 PM 33.8 °F 25.8 °F 19.4 °F 56% 30.39 in 10.0 mi SSE 10.4 mph - N/A   Clear